Theta_e
284 284 284 283 283 283 282 282 282 281 281 281 280 280 279 280 279 279 279 278 278 278 277 277 277 277 277 277 276 276 276 276 276 276 275 275 275 275 275 275 275 275 275 275 276 276 275 275 275 276 276 275 275 275 276 276 276 276 277 277 277 278 278 277 276 276 279 282 281 280 281 282 280 282 281 283 283 284 285 284 285 285 285 285 285
284 284 283 283 282 282 282 281 281 281 280 280 279 279 279 279 279 279 278 278 278 277 277 277 277 276 276 276 276 275 275 275 275 275 275 274 274 275 274 274 273 273 273 273 273 274 274 273 273 273 273 272 272 272 273 273 273 273 274 274 275 275 276 275 274 274 273 277 278 279 279 280 277 279 278 279 280 282 282 282 282 282 282 282 282
284 283 283 282 282 282 281 280 280 280 279 279 279 279 279 279 279 278 278 278 277 277 277 277 276 276 275 275 275 275 275 275 275 274 274 274 273 273 273 272 272 271 271 271 271 272 271 271 271 272 272 271 271 271 272 271 271 271 271 272 272 273 273 274 273 272 272 273 276 275 276 276 276 277 279 281 281 281 280 280 280 281 281 281 281
284 283 282 282 281 281 280 280 279 279 279 279 278 278 279 279 279 278 278 277 277 277 276 276 276 275 275 275 275 274 274 274 274 273 273 272 272 272 271 271 271 271 270 270 271 271 271 270 270 271 271 270 270 270 271 270 270 270 270 271 271 271 272 273 273 272 271 270 272 273 275 275 276 277 277 279 279 278 278 278 279 279 280 282 283
283 283 282 281 281 280 280 279 279 279 279 278 278 278 278 278 278 277 277 277 277 276 276 276 275 275 275 274 274 274 273 273 273 272 272 271 271 271 270 270 270 270 270 270 271 271 270 270 270 270 270 269 269 269 269 269 269 269 269 270 270 270 271 271 271 271 270 269 270 273 274 274 276 277 279 277 277 277 277 277 278 279 280 280 281
283 282 282 281 280 280 279 279 279 278 278 278 278 278 278 278 277 277 277 276 276 276 276 275 275 274 274 273 273 272 272 272 271 271 270 270 270 270 270 270 269 269 270 270 270 270 270 270 270 270 269 268 268 269 269 269 269 269 269 269 269 270 270 270 270 270 270 270 270 270 273 273 273 274 276 276 276 275 276 278 278 279 279 279 281
282 282 281 281 280 280 279 279 279 278 278 278 278 278 277 277 277 276 276 276 275 274 274 274 273 273 272 272 271 271 271 270 270 270 270 270 270 270 269 269 269 269 270 270 270 270 270 270 270 270 270 269 269 269 269 269 269 269 269 269 269 269 269 269 269 269 269 269 270 271 271 273 274 273 276 277 277 276 275 275 276 279 280 280 280
282 281 281 280 280 280 279 279 278 278 278 278 278 277 277 276 276 275 275 274 273 273 272 272 271 271 271 270 270 270 270 270 269 269 270 270 270 269 269 269 269 269 270 270 271 271 271 271 271 271 271 270 270 270 270 269 270 269 270 269 269 269 268 269 269 269 269 269 269 270 271 272 273 274 275 275 274 275 276 276 275 276 277 280 281
281 281 280 280 280 280 279 279 278 278 278 277 277 276 276 275 274 274 273 272 272 271 271 271 270 271 271 270 270 271 270 270 270 270 269 269 269 268 269 269 269 270 270 270 271 271 271 271 271 271 272 274 275 274 274 274 272 270 270 270 269 269 268 269 269 268 268 269 269 270 270 270 271 272 272 272 273 273 275 276 276 277 279 279 281
281 280 280 280 280 279 279 278 278 278 277 276 275 275 274 273 272 271 271 270 270 271 270 270 270 270 270 270 270 270 270 270 271 273 273 269 269 270 270 270 270 270 270 270 271 271 271 271 272 274 275 275 276 276 277 277 277 275 273 273 272 270 268 268 268 268 269 268 268 269 269 270 271 272 272 273 274 276 275 276 275 277 279 279 280
280 280 280 279 279 278 278 277 277 276 276 275 274 273 272 271 270 269 269 269 269 269 269 269 269 270 270 269 270 270 270 270 273 275 275 276 273 272 271 271 271 271 271 271 271 271 272 272 272 273 274 274 274 276 277 277 277 277 277 277 276 274 271 271 270 271 269 269 270 270 270 270 271 273 273 274 275 275 276 276 276 277 277 276 276
280 279 279 278 278 277 277 276 275 275 274 273 272 271 270 269 269 268 268 268 268 268 268 269 269 269 269 269 270 270 270 272 274 275 275 276 276 273 273 272 272 272 272 271 271 271 271 272 272 272 272 272 272 272 274 276 277 277 277 277 277 278 278 274 272 271 271 270 270 270 271 271 272 273 274 275 275 276 276 277 277 277 277 277 276
279 279 278 277 277 276 276 275 274 273 272 271 270 270 269 269 268 267 267 268 268 268 268 268 268 269 269 269 269 270 270 272 274 275 275 276 276 275 273 273 272 272 272 272 272 271 271 271 271 272 272 275 274 273 273 273 275 277 277 277 277 277 278 278 278 275 274 272 272 272 272 273 273 274 276 276 277 276 276 276 277 277 277 277 278
278 278 277 277 276 275 274 274 273 272 270 269 269 268 268 267 267 268 268 268 268 268 268 268 269 269 269 269 269 269 269 271 274 275 275 275 276 276 274 273 273 273 272 272 271 271 271 271 271 271 272 273 273 273 273 273 273 272 272 272 272 274 276 277 278 278 277 274 273 272 274 275 274 275 276 278 276 275 275 275 276 276 276 276 278
278 277 276 275 275 274 273 272 271 270 269 268 267 267 267 267 267 267 267 268 267 267 267 268 268 269 269 269 269 269 269 272 273 274 275 275 276 276 274 273 272 272 271 272 272 272 272 272 272 272 272 273 273 274 273 273 274 274 273 273 273 273 272 272 272 273 273 274 273 273 274 275 275 276 276 277 277 277 277 276 276 277 278 279 279
277 276 275 274 274 273 272 270 269 268 267 267 267 267 266 267 267 267 267 267 268 268 268 268 268 268 268 268 267 267 268 271 273 274 274 275 276 274 273 272 271 271 271 272 272 272 273 273 272 273 273 273 275 278 277 276 275 274 273 273 273 274 274 276 277 278 276 275 275 275 275 276 278 277 278 278 278 278 278 278 278 277 276 276 275
276 275 275 274 273 273 271 269 268 267 267 267 266 266 266 266 267 267 267 267 267 267 267 268 268 267 267 267 267 267 267 269 272 273 273 275 275 273 272 272 272 271 271 272 272 273 273 273 273 274 274 274 276 278 278 278 274 273 273 272 272 273 273 275 278 279 279 280 280 281 281 282 282 282 283 283 281 280 278 276 275 277 276 274 276
276 275 274 274 273 271 270 269 268 267 266 266 266 266 266 267 267 267 267 267 266 267 267 267 267 267 267 266 267 266 266 268 271 272 274 274 274 273 272 271 271 271 272 272 273 273 274 276 276 274 274 273 276 278 278 276 274 273 272 272 271 271 272 274 274 275 279 279 280 280 280 281 281 282 282 282 283 282 278 275 277 277 276 276 275
275 274 273 273 272 271 269 269 268 267 266 266 267 266 266 266 267 267 267 267 267 267 267 266 266 267 267 267 268 267 266 268 271 272 273 274 274 273 272 271 271 271 272 272 273 273 274 275 276 275 274 274 277 277 278 277 274 273 273 272 271 271 272 273 273 273 274 274 275 275 276 278 277 277 278 281 282 281 279 278 278 277 276 276 276
275 274 273 272 272 271 270 269 268 267 267 266 266 266 266 266 266 266 266 266 266 266 266 266 265 265 266 266 266 267 267 267 269 272 273 274 274 273 272 271 270 271 272 272 272 273 273 272 273 275 275 276 277 278 278 279 275 274 273 272 271 270 272 273 273 274 274 274 274 274 274 275 276 277 277 276 277 277 277 278 278 278 277 276 276
274 272 272 271 270 270 269 269 268 267 267 266 266 266 266 266 265 265 265 265 265 265 265 265 265 264 265 266 266 267 268 267 268 272 273 273 274 274 272 272 272 272 272 272 272 271 271 271 271 273 275 276 277 278 278 278 277 274 273 271 271 272 275 273 273 276 274 274 275 275 275 275 275 276 276 276 277 278 278 279 279 279 279 277 277
272 271 270 270 269 268 268 268 267 266 265 265 265 265 265 265 265 264 265 265 265 264 264 264 264 264 265 267 267 267 269 270 269 271 272 273 273 275 273 273 274 273 272 271 271 270 270 270 269 272 275 277 277 277 277 276 276 272 271 275 276 277 274 273 273 272 272 272 273 274 274 274 274 275 276 277 278 279 279 280 280 280 281 280 279
271 270 269 268 267 267 266 266 265 264 264 265 265 264 264 264 264 264 264 264 263 263 263 263 264 265 266 266 267 268 269 269 270 269 271 272 273 274 275 275 276 274 272 270 270 269 270 270 270 274 276 276 276 276 276 276 273 271 275 276 276 276 274 270 270 270 270 270 271 273 274 274 274 274 275 276 277 278 279 280 280 281 281 281 282
269 268 267 267 266 265 265 264 264 263 264 264 264 263 263 263 263 263 264 263 262 262 263 264 264 264 264 266 267 268 268 268 269 270 270 272 273 275 275 275 275 273 272 270 270 270 270 270 272 275 274 274 274 274 274 273 271 274 274 275 274 273 269 269 268 268 269 268 269 270 272 274 275 275 276 277 278 279 280 281 281 282 281 282 282
268 267 266 265 264 264 263 263 263 263 264 264 263 262 262 262 262 263 263 263 263 263 264 265 264 264 265 266 266 267 268 268 268 269 271 272 273 274 274 274 274 274 271 270 270 270 273 274 274 273 273 273 273 272 271 271 272 273 273 273 272 268 268 267 267 267 267 267 268 269 270 271 273 275 277 278 279 280 281 281 282 282 282 283 283
267 266 265 264 263 262 262 262 263 263 264 264 264 263 262 263 263 263 263 264 264 264 265 264 264 265 265 266 266 266 267 267 268 269 270 271 272 273 273 273 273 273 272 271 272 273 273 272 271 271 271 270 268 267 267 267 271 271 271 271 267 267 267 267 267 267 266 267 267 268 269 271 272 273 275 277 278 278 279 279 280 281 282 281 281
267 265 264 263 262 262 262 261 261 262 263 264 264 263 264 264 264 263 263 264 264 264 265 265 265 265 265 265 266 266 266 267 267 268 269 270 271 272 272 271 272 272 270 269 271 267 267 267 267 270 269 270 269 269 269 268 266 266 266 266 266 266 267 267 267 267 267 267 267 268 269 270 272 272 272 273 274 276 280 280 280 280 281 282 281
266 264 263 262 262 262 262 263 262 262 263 263 263 263 264 265 264 263 264 264 264 264 264 265 265 265 265 265 265 265 266 266 267 268 269 271 271 271 271 271 270 269 269 270 268 266 265 266 266 264 264 264 264 263 263 264 264 265 265 265 266 267 268 270 270 268 267 268 268 268 269 269 269 270 271 271 273 275 279 280 281 280 281 281 280
265 264 263 262 262 262 262 262 262 262 262 263 263 264 264 264 265 265 266 266 266 265 265 266 266 266 266 266 265 265 265 266 267 272 272 272 272 271 270 270 270 269 271 272 266 263 262 261 260 261 261 261 261 261 262 262 262 263 264 264 265 265 266 266 265 265 266 267 266 267 267 268 268 269 270 270 272 274 277 278 281 281 282 282 280
264 263 263 262 262 262 261 261 262 262 262 262 262 263 267 268 267 265 265 269 270 271 270 267 267 267 266 267 267 265 266 267 272 272 272 272 273 273 272 272 272 271 271 270 266 258 258 258 259 259 260 260 260 260 261 261 261 262 263 265 264 264 265 265 265 266 267 267 267 267 267 267 267 268 269 269 270 272 274 275 275 278 280 281 280
264 263 263 262 262 262 262 261 262 262 263 262 262 262 264 267 270 269 269 270 271 272 272 272 272 271 268 266 269 272 271 272 272 272 272 272 272 272 271 271 271 271 270 265 259 257 257 258 258 259 260 260 260 260 261 261 261 261 262 263 263 264 264 264 265 266 266 266 267 267 267 268 267 267 267 268 268 269 270 272 274 276 278 280 281
264 263 263 263 263 262 262 262 262 262 262 262 262 262 263 263 266 270 271 272 272 273 273 273 273 272 272 270 268 268 271 272 272 271 271 271 271 271 270 270 270 270 269 266 257 257 257 257 258 258 259 259 260 260 261 261 261 261 261 262 262 263 264 264 265 265 265 266 266 267 267 267 267 267 267 267 268 268 268 269 271 273 276 279 281
265 264 263 263 262 263 262 262 262 262 261 262 262 263 263 264 264 265 269 272 273 273 272 272 273 272 272 272 272 271 271 271 271 271 271 270 270 270 269 269 269 269 266 259 255 256 257 257 257 258 259 258 259 260 260 260 261 261 261 262 262 263 264 265 265 265 266 267 267 267 267 267 267 266 267 267 267 266 267 268 269 271 273 274 278
265 264 263 263 262 262 262 262 262 262 262 263 263 263 263 264 265 265 264 265 268 270 272 272 272 272 272 272 272 271 271 271 271 270 270 270 269 268 267 264 267 267 264 256 256 256 257 257 258 258 258 259 259 260 260 260 261 261 262 262 263 263 264 265 264 264 265 267 267 267 267 266 266 266 265 266 266 266 266 267 268 269 270 272 275
265 265 266 265 263 263 263 263 263 262 263 263 263 263 263 264 264 264 263 264 264 263 262 263 268 270 268 269 271 271 271 270 270 269 269 268 267 266 263 257 256 256 257 256 256 255 257 257 257 258 258 258 259 260 260 260 260 261 261 262 262 263 263 263 263 264 265 266 266 266 266 266 266 266 265 265 265 265 265 266 267 268 268 270 273
265 264 264 264 264 263 263 262 263 263 263 263 264 263 263 263 263 262 262 263 263 260 259 259 259 267 269 269 270 270 270 270 269 268 267 267 265 263 254 253 253 254 254 254 255 256 257 257 257 257 258 258 259 259 260 260 260 261 261 262 262 262 262 262 263 264 266 266 266 266 267 266 266 265 265 265 265 265 265 265 266 267 268 269 271
265 264 264 264 264 263 263 262 262 263 264 262 262 261 262 261 261 261 261 261 260 259 258 258 258 260 262 260 264 267 268 268 267 266 265 264 263 257 251 251 250 251 252 253 254 256 256 256 257 257 257 258 258 259 260 260 261 261 262 262 262 262 262 263 264 265 265 266 266 266 265 265 265 265 265 264 264 265 265 265 266 267 268 269 272
265 265 264 264 263 263 262 262 262 264 261 260 261 261 260 259 259 259 259 258 258 257 257 258 260 257 256 256 263 261 261 263 263 260 259 259 255 251 251 251 252 251 251 252 253 254 254 255 256 257 257 258 258 259 260 260 261 261 261 261 262 262 265 264 264 264 266 266 266 266 265 265 265 265 265 264 264 264 264 265 265 265 266 268 269
265 267 267 266 265 262 262 262 261 260 260 260 259 259 258 258 258 257 258 258 257 256 256 256 256 255 255 256 255 259 258 252 250 249 249 248 249 248 248 249 249 250 251 251 252 253 253 254 255 257 257 258 258 259 259 260 260 261 261 261 262 262 262 262 262 265 266 265 265 266 265 265 265 265 265 264 264 264 264 264 265 265 265 266 267
265 264 265 266 264 263 261 260 260 260 259 259 258 258 258 257 257 257 257 257 256 256 255 255 254 254 255 255 256 256 252 250 249 248 248 248 248 248 247 248 248 248 250 251 251 251 252 253 255 256 257 257 258 259 260 260 260 261 261 261 261 261 262 262 263 265 266 266 265 265 265 265 265 265 264 264 264 264 264 264 265 265 265 266 267
264 263 264 265 264 261 260 260 260 259 259 258 258 258 257 257 257 256 256 256 255 255 255 254 254 253 254 259 264 260 251 249 248 248 247 248 248 246 247 247 248 249 249 250 251 251 251 252 254 255 256 257 258 259 259 260 260 260 261 261 262 262 262 262 264 266 266 266 266 265 265 265 265 264 264 264 266 266 265 265 264 265 265 266 267
263 263 262 262 261 260 259 259 259 258 259 257 258 257 256 256 256 256 255 255 255 254 254 253 253 251 256 265 264 262 251 246 248 247 247 246 246 246 248 247 247 246 248 249 250 251 251 252 253 255 255 257 257 258 259 259 259 260 261 261 262 262 262 263 266 267 266 266 266 265 265 265 265 265 265 266 264 264 264 264 264 265 265 265 267
262 262 261 260 260 260 259 258 258 258 257 257 256 257 256 255 255 255 255 254 254 254 253 252 252 251 254 262 261 259 248 245 250 247 246 246 245 247 246 247 248 248 248 249 249 250 251 251 252 254 255 256 257 258 258 259 260 260 261 262 262 262 262 264 266 267 267 266 266 265 265 265 265 264 264 264 264 264 264 264 264 264 265 265 266
261 260 259 259 259 258 258 258 257 257 257 256 255 255 254 254 254 254 254 253 253 253 253 252 251 251 249 251 252 249 246 246 245 243 245 246 246 246 246 246 248 248 249 249 250 250 250 251 252 253 254 255 256 257 258 259 260 261 261 262 262 263 263 265 266 267 267 266 265 265 265 265 265 265 264 264 264 264 264 264 264 264 265 265 266
260 259 258 257 256 256 257 257 256 255 254 254 254 254 254 254 253 253 253 253 252 252 252 251 250 249 248 247 246 246 245 244 246 246 245 244 244 245 245 246 247 248 249 249 250 250 250 251 252 252 253 255 256 256 258 259 260 261 262 262 262 262 263 265 267 268 268 266 266 265 265 265 264 264 264 264 264 264 263 263 264 265 265 265 266
259 258 257 256 257 256 256 255 254 254 254 254 253 253 253 253 253 252 252 252 252 251 251 250 250 248 247 245 246 247 244 243 243 244 246 245 244 245 245 245 247 247 248 249 249 250 250 251 252 252 253 254 255 256 258 259 260 261 262 263 263 264 265 268 269 269 268 267 266 265 265 265 264 265 265 264 264 264 263 264 264 264 264 265 267
259 258 257 257 257 255 254 254 254 254 254 253 253 253 253 252 252 252 252 251 251 251 250 250 249 248 246 245 245 244 245 245 243 244 243 243 243 245 245 245 247 248 248 249 249 249 250 251 251 252 253 254 255 256 257 259 260 261 263 263 264 265 267 269 269 269 268 267 266 265 265 264 264 264 264 264 264 264 264 263 264 264 264 265 267
258 257 257 256 255 254 254 254 254 254 253 253 253 252 252 252 251 251 251 251 251 250 250 249 248 246 246 245 246 245 245 244 244 245 244 244 243 244 245 244 247 247 248 249 249 249 250 250 251 251 252 254 255 256 257 258 260 261 263 264 264 266 269 270 270 270 269 268 266 266 265 264 264 264 264 264 264 263 263 263 263 264 264 265 267
257 256 255 254 254 254 254 254 254 254 253 253 252 252 251 251 251 250 250 251 251 250 249 248 247 246 245 245 245 245 245 245 243 242 243 244 244 244 245 245 246 247 248 248 248 249 249 250 251 251 252 253 254 255 257 258 260 261 263 264 266 269 270 270 270 270 269 268 266 266 265 265 264 264 264 264 264 263 263 263 263 264 264 265 265
256 255 255 255 255 254 254 254 254 254 253 253 252 252 251 251 251 251 252 252 252 251 251 248 246 246 245 245 246 245 244 244 244 244 244 244 245 245 246 246 246 247 247 247 248 249 249 250 250 251 252 253 254 255 257 258 260 261 263 265 268 269 270 270 270 270 269 268 266 266 265 265 264 264 264 264 264 263 263 263 263 263 263 263 264
256 256 255 255 254 254 254 254 254 253 253 253 252 252 251 252 252 252 252 252 252 251 251 250 249 245 245 245 246 245 244 244 244 244 245 245 245 246 246 247 247 247 247 247 248 248 249 249 250 251 251 253 254 255 257 258 260 262 265 267 268 269 270 270 270 270 270 268 267 266 265 264 264 264 264 264 264 263 263 263 263 263 263 263 263
Wind_Speed
14 14 13 13 13 15 15 14 14 12 12 12 12 12 11 11 10 9 9 9 9 9 8 8 7 8 7 7 7 6 5 5 4 4 4 4 4 4 4 4 5 6 5 6 5 5 6 7 7 7 5 6 6 6 7 8 9 10 10 12 14 13 12 13 15 18 16 12 15 15 13 13 14 11 12 13 14 12 15 16 17 15 14 13 14
16 15 13 12 14 14 13 11 12 11 13 12 12 11 10 10 10 9 10 8 8 8 8 7 7 7 7 6 6 5 5 4 4 3 4 4 5 4 4 4 5 6 5 6 5 5 6 7 8 7 5 7 8 8 8 8 8 9 10 12 13 12 10 12 13 14 18 14 16 16 17 12 16 15 15 15 19 12 13 13 13 14 14 15 16
14 12 13 13 14 12 11 12 12 13 14 12 12 12 11 10 9 10 9 8 7 7 8 7 7 7 6 6 5 5 5 4 4 4 4 5 5 4 3 3 4 5 5 6 5 5 6 7 8 7 6 8 8 9 8 9 8 9 11 11 13 12 11 10 12 15 16 16 14 15 16 16 15 19 15 12 12 12 15 15 13 13 14 17 19
14 14 14 14 13 13 14 12 13 14 14 12 13 12 11 10 9 9 8 7 8 6 6 7 7 6 6 6 5 5 5 4 4 4 4 4 4 4 4 4 5 5 5 5 5 6 7 8 9 9 10 12 12 11 10 10 9 9 11 12 12 12 10 10 13 14 13 16 14 14 15 16 13 17 17 17 14 11 12 14 15 16 18 15 17
12 14 15 16 15 15 15 14 14 14 14 12 14 13 12 11 9 10 9 8 7 7 6 6 6 6 6 6 5 4 4 4 4 4 3 3 3 4 5 5 5 5 5 6 7 9 10 11 11 10 11 12 12 12 11 13 12 12 12 12 11 11 10 12 13 13 15 17 17 15 17 17 16 15 13 13 13 12 13 15 15 15 16 17 17
12 12 13 15 15 17 16 15 16 16 14 13 14 13 12 11 11 9 10 10 8 7 7 6 6 6 5 4 4 4 3 4 4 3 3 3 3 4 5 5 5 6 6 8 9 10 11 11 11 11 12 13 13 13 13 15 14 14 15 14 12 11 13 14 14 15 16 18 18 18 15 17 16 15 13 13 15 15 12 13 14 14 15 16 16
13 13 14 15 14 16 16 16 15 14 14 13 12 12 12 12 12 11 9 9 9 8 7 6 5 5 4 4 3 3 3 3 3 3 4 4 5 6 5 6 6 6 7 9 10 11 12 11 11 12 12 13 14 14 14 15 14 16 15 15 14 14 14 13 13 15 17 17 18 18 17 15 14 16 12 10 13 14 17 17 17 13 12 14 15
14 14 14 14 14 15 15 13 12 12 11 12 12 12 12 11 11 10 9 9 9 8 7 7 4 5 3 3 3 3 3 3 4 5 5 6 6 6 6 6 7 8 9 10 11 12 12 13 13 13 14 15 16 16 16 15 15 16 14 14 15 15 15 13 14 14 16 17 18 18 16 17 14 13 13 13 14 16 13 14 17 16 15 14 15
14 14 14 14 14 12 10 10 10 11 11 12 12 12 12 11 11 10 9 8 7 6 6 5 5 4 3 3 3 4 4 5 5 6 6 7 6 6 6 6 8 9 10 12 12 13 12 11 12 13 16 21 24 21 18 17 12 11 12 13 15 15 14 13 13 13 14 16 17 16 16 16 14 14 15 13 15 16 14 13 17 16 15 15 15
15 14 15 13 11 10 11 10 11 11 11 12 12 12 12 11 11 10 9 8 7 6 6 5 4 5 5 5 6 6 6 5 9 14 11 6 6 6 7 8 9 10 10 11 12 13 13 13 12 20 21 22 22 24 26 26 27 22 15 13 11 12 12 13 14 13 14 15 17 16 17 17 14 14 15 16 15 15 16 14 17 15 13 14 15
13 13 13 11 11 11 12 12 12 12 11 11 11 12 12 11 11 10 9 8 8 7 6 6 5 5 6 6 7 7 6 6 13 13 13 15 10 8 8 8 9 11 11 11 10 11 11 12 12 15 17 19 19 25 25 26 26 27 29 29 25 19 15 15 15 13 12 15 15 16 17 19 18 15 16 16 14 14 16 15 16 14 12 13 15
13 13 12 12 13 14 13 13 13 12 12 12 12 12 12 12 11 11 10 10 8 7 7 7 7 6 6 7 7 7 6 10 13 12 13 13 12 8 7 7 8 9 10 11 11 11 12 12 11 10 13 15 15 16 20 26 29 30 31 29 28 30 29 22 18 16 17 16 17 17 17 18 19 16 14 15 16 16 16 15 14 12 12 12 14
12 12 12 13 14 14 13 14 13 13 12 12 11 11 12 11 10 10 10 8 8 8 8 8 7 7 7 7 7 7 7 10 12 13 12 12 13 11 7 8 9 10 10 11 12 12 11 11 12 13 12 22 19 16 17 19 25 30 31 31 31 31 30 33 33 25 18 18 18 18 17 18 18 16 14 14 14 17 17 15 13 13 14 13 12
13 12 12 13 13 13 14 14 14 12 12 11 11 11 11 8 8 7 8 9 8 8 8 8 7 7 7 7 6 7 7 9 12 12 11 12 12 12 8 8 8 7 9 11 11 12 12 13 13 13 14 13 14 17 16 16 18 16 16 17 16 22 29 33 34 37 31 22 20 20 16 16 20 17 15 15 16 16 13 14 11 14 15 17 17
12 11 12 11 11 12 12 12 12 12 9 9 9 8 8 9 10 8 8 9 9 9 9 9 8 7 7 7 6 6 5 10 11 12 11 11 12 12 7 6 6 9 10 11 12 12 13 13 15 16 15 14 14 17 18 16 14 14 15 15 13 13 15 19 20 18 19 19 20 21 20 18 18 18 16 16 17 17 17 18 18 16 15 15 15
12 12 12 13 13 14 14 14 14 15 11 9 9 11 9 10 11 9 8 7 7 7 7 7 8 8 7 5 5 6 6 11 11 11 11 10 12 7 5 8 9 8 9 10 11 12 12 14 14 15 16 14 18 26 23 19 18 18 18 17 16 12 12 16 23 23 21 19 18 18 18 19 24 22 20 18 17 17 16 16 15 14 14 15 16
14 14 14 15 16 16 17 18 18 17 13 13 12 12 13 12 10 9 10 9 9 9 8 8 7 7 7 7 7 6 5 8 10 10 10 10 9 5 7 6 7 10 10 10 11 11 12 13 13 14 14 12 19 27 27 26 17 16 16 16 16 16 16 15 24 32 34 36 38 39 38 38 38 38 37 39 29 22 15 15 16 13 15 16 15
14 15 16 16 17 17 18 19 20 19 14 12 13 12 10 9 10 10 10 12 10 10 8 7 6 6 7 7 7 6 5 8 11 10 10 10 9 6 5 7 8 9 9 10 9 9 12 21 21 16 14 15 23 27 27 22 16 16 16 17 18 16 14 13 14 17 29 33 36 38 37 37 38 38 39 37 37 29 18 19 16 13 19 16 17
16 17 16 16 16 16 17 18 19 18 19 12 11 13 12 11 10 8 7 8 8 8 7 6 6 5 5 5 8 7 5 8 11 9 9 10 8 5 6 6 8 9 9 9 9 10 11 13 20 19 19 21 28 27 29 25 17 16 16 16 17 19 16 15 15 16 16 16 17 19 22 28 26 23 23 35 36 30 20 19 14 16 17 16 14
14 12 13 15 15 15 15 17 17 18 17 11 8 10 10 9 10 10 8 7 7 7 7 6 6 4 4 4 4 6 7 6 6 9 9 10 11 7 5 7 8 10 10 9 8 8 10 11 14 19 24 26 27 30 30 30 21 17 15 15 16 19 15 15 18 18 19 19 19 18 21 18 16 16 15 15 18 20 22 19 17 16 16 14 14
12 13 13 14 14 15 13 15 16 14 16 16 10 9 9 11 10 9 10 9 8 8 8 6 5 4 4 5 6 7 7 6 7 9 9 9 11 10 6 8 8 9 7 7 8 10 10 11 11 18 24 26 28 30 29 28 26 18 16 14 16 20 25 18 19 25 17 16 15 16 16 16 16 14 16 16 15 16 17 22 18 16 16 15 15
13 14 15 15 14 14 15 12 13 13 12 12 10 10 8 8 9 8 7 9 10 7 7 5 4 4 4 5 5 6 7 7 2 5 8 9 10 13 8 7 9 8 8 7 9 10 12 12 12 18 26 27 27 27 28 26 28 16 15 24 30 30 22 17 14 13 12 14 14 14 13 13 13 12 13 14 14 15 16 15 17 17 17 14 16
14 14 15 15 14 14 13 15 12 11 13 11 10 12 9 9 9 8 11 9 9 8 7 6 5 5 4 4 5 5 4 3 5 4 7 8 10 11 13 11 15 8 6 7 8 10 11 13 13 22 26 26 26 26 25 28 22 16 26 27 28 30 25 13 14 14 13 14 15 14 12 11 11 12 12 14 14 16 17 18 17 17 18 18 18
14 15 14 14 14 13 14 13 12 11 13 12 7 11 10 9 8 6 7 8 8 7 6 6 6 5 5 5 5 4 3 3 4 5 5 8 10 11 12 14 14 8 7 7 10 11 10 11 15 25 24 25 25 25 25 24 19 26 27 29 29 25 14 14 13 14 15 16 15 15 14 12 11 13 13 15 14 15 15 16 16 17 18 17 19
16 15 15 15 14 13 13 12 13 13 12 13 11 10 11 9 9 7 8 8 7 7 7 7 6 6 6 5 4 4 4 3 3 4 6 7 9 10 12 13 12 14 8 4 9 9 14 23 23 22 22 23 25 24 20 21 24 25 27 27 25 13 12 12 13 13 14 14 14 14 14 14 15 15 15 14 14 14 14 14 14 15 17 17 18
16 16 15 14 14 15 15 13 12 12 14 7 7 10 12 9 8 9 7 8 8 8 7 7 6 6 6 5 5 5 4 3 3 4 6 7 6 9 11 11 12 13 11 10 16 17 18 19 21 20 18 18 15 13 13 15 23 25 25 23 13 12 12 12 12 13 13 14 15 15 15 15 15 16 17 17 15 13 13 14 14 14 15 15 15
15 15 16 14 14 16 17 14 12 12 11 8 7 7 8 8 9 9 7 9 9 8 8 7 7 7 6 6 5 5 4 3 4 5 5 5 5 5 5 6 9 9 7 9 8 6 10 12 12 17 16 21 20 19 18 18 15 13 11 11 11 11 12 11 12 14 14 14 14 14 14 14 15 15 15 14 16 16 16 16 15 15 15 14 15
17 17 17 15 14 15 15 14 15 9 7 8 10 8 7 9 9 10 11 11 11 9 9 8 8 8 7 6 5 5 4 4 5 5 5 4 4 4 4 3 3 4 6 5 4 7 7 9 11 8 9 9 9 8 9 9 11 11 11 11 11 12 15 21 19 13 13 13 14 14 14 14 14 14 14 15 16 16 17 17 16 16 15 15 14
13 15 15 14 14 13 13 14 13 12 9 5 4 7 9 11 10 8 6 6 8 9 9 8 7 6 6 6 6 5 5 5 6 5 2 3 3 2 2 2 2 3 7 11 6 5 5 6 7 8 8 9 10 10 9 10 10 11 12 11 11 11 11 11 12 12 12 12 13 13 14 14 14 14 15 16 16 17 16 16 17 17 16 15 16
14 15 14 14 13 14 12 12 13 11 10 12 12 9 8 12 9 9 9 12 14 12 11 7 7 6 6 5 5 5 5 6 5 1 2 3 5 7 7 7 7 6 9 11 7 3 5 6 7 8 9 9 10 10 11 11 11 12 11 14 13 12 13 13 12 13 13 13 13 14 14 13 13 13 14 16 16 16 16 18 17 16 16 16 14
14 14 14 14 16 16 14 14 13 15 16 17 17 14 11 9 13 15 15 15 14 15 13 13 14 13 7 3 5 11 9 4 2 2 3 4 6 6 6 6 7 8 10 6 5 5 6 7 7 7 8 8 9 10 11 11 12 12 12 12 12 13 14 13 12 13 13 14 13 13 12 12 13 14 15 16 17 17 16 16 16 17 15 15 16
17 17 16 14 15 16 14 15 13 9 9 7 9 11 14 15 10 13 16 15 14 14 14 14 14 13 14 10 5 3 4 5 4 4 4 6 6 6 5 6 8 9 12 9 3 5 5 6 7 8 8 9 9 10 10 11 11 12 13 13 13 13 14 15 15 16 15 14 13 13 12 13 13 14 14 15 17 17 16 18 16 16 17 15 15
17 16 15 15 16 15 14 13 10 11 11 12 12 13 12 13 17 13 11 14 14 13 14 13 13 13 13 12 11 8 6 6 6 5 6 6 7 7 6 7 9 11 9 6 4 6 6 6 6 8 8 9 10 10 11 11 11 12 12 13 14 15 16 18 20 15 13 13 14 13 13 13 14 14 14 14 15 16 17 17 16 16 17 17 16
19 18 18 19 18 17 15 10 11 10 10 13 14 12 12 13 13 15 15 11 10 11 12 14 14 13 12 10 8 8 8 7 7 6 6 7 7 8 7 5 8 10 8 4 5 4 5 6 7 8 8 9 9 10 10 11 11 11 12 13 13 14 13 14 14 14 13 13 13 13 13 13 13 14 14 14 13 14 16 16 16 16 16 16 15
14 16 21 18 17 16 14 12 13 14 14 14 13 13 12 11 12 13 13 13 13 12 8 5 7 10 5 5 8 9 8 8 8 7 7 7 7 6 6 5 6 6 8 5 5 4 6 7 8 8 8 9 10 10 11 12 12 12 13 13 14 14 15 15 15 14 13 14 14 13 13 14 14 13 14 14 14 14 15 15 15 15 16 16 16
15 14 16 19 16 9 15 16 17 18 14 13 12 12 12 12 12 10 9 9 10 9 7 5 2 5 11 6 9 8 9 9 8 8 8 9 8 6 6 5 4 5 5 5 5 6 5 6 7 8 8 9 9 10 10 11 12 12 12 13 14 14 15 16 15 13 14 14 14 15 15 12 12 14 13 14 15 15 14 15 16 17 16 16 16
15 15 14 15 14 12 16 19 18 15 14 13 12 11 10 10 9 9 9 9 9 7 8 6 5 4 5 3 4 6 8 8 9 9 9 9 10 6 4 2 2 3 3 5 5 5 6 6 6 8 8 9 10 10 10 11 11 12 13 14 13 14 14 15 16 15 16 15 15 14 13 13 13 13 14 15 14 13 13 15 17 18 17 19 19
14 14 14 16 16 18 18 18 14 16 15 16 10 9 11 11 10 10 10 9 9 9 8 7 6 6 6 1 2 2 4 7 7 7 6 6 5 4 3 1 0 1 3 4 4 5 6 7 7 8 9 9 10 10 11 11 12 12 13 14 14 13 23 20 19 17 16 15 14 14 13 13 13 13 13 13 13 14 16 16 16 16 17 18 16
12 14 19 20 19 18 15 14 14 17 15 11 11 12 12 11 10 9 9 9 9 8 7 7 7 6 5 4 1 1 6 4 4 2 2 3 2 1 1 1 1 2 3 3 5 5 6 7 8 8 9 9 10 10 11 11 12 12 13 13 14 14 16 14 15 16 15 15 15 15 14 13 13 13 13 14 13 14 15 15 15 16 16 16 14
14 13 18 26 17 14 13 14 15 13 12 13 13 12 11 11 10 10 10 10 9 8 8 8 7 6 5 3 3 4 6 3 1 0 0 1 1 2 1 2 3 3 4 6 5 5 6 7 8 9 10 10 10 11 11 11 12 12 13 13 14 15 17 13 13 15 16 15 16 15 15 14 14 14 13 13 14 14 14 15 16 17 16 16 16
13 14 16 17 16 14 12 14 13 13 12 11 11 11 10 10 9 9 9 9 9 8 8 7 7 6 5 4 8 9 7 5 2 1 1 0 1 1 2 2 2 4 4 5 6 6 6 7 8 9 10 10 10 11 11 12 12 12 13 14 14 15 12 12 15 13 16 17 17 17 16 16 15 15 15 14 17 16 14 15 16 16 16 16 16
14 15 14 13 15 14 13 12 12 13 12 12 11 11 10 10 9 9 9 9 8 8 8 7 5 4 3 5 10 11 8 3 1 1 0 1 1 2 2 2 3 3 4 4 5 6 7 7 8 9 10 10 10 11 11 11 12 12 13 14 15 16 13 13 14 14 17 17 18 18 18 17 17 16 15 16 15 14 15 15 15 15 14 15 15
15 14 14 14 13 14 14 14 13 13 11 11 10 8 10 10 9 9 9 8 8 8 8 7 5 3 3 7 8 9 4 1 1 0 1 1 2 2 2 3 4 4 4 4 4 4 6 7 8 8 9 10 10 10 11 11 12 12 13 14 15 17 16 15 14 15 17 18 19 20 21 19 18 15 15 14 14 15 14 15 16 15 15 15 15
13 13 13 13 12 12 12 13 12 11 10 10 10 10 10 9 9 8 9 8 8 7 7 7 6 6 4 5 6 4 1 0 0 1 1 1 2 3 4 4 5 5 5 5 5 4 5 7 8 9 9 9 10 10 10 10 11 12 13 14 14 15 14 15 15 16 17 18 19 20 20 19 19 17 16 15 16 16 17 17 17 15 14 14 14
13 14 13 14 14 16 13 11 11 11 12 11 9 9 8 8 9 8 8 8 7 7 6 6 6 6 4 3 2 1 0 1 1 1 2 2 3 4 5 4 5 6 6 6 6 6 6 7 8 8 10 10 10 10 11 11 11 11 12 13 14 14 14 16 15 16 17 19 19 19 19 19 19 18 17 17 17 16 15 15 15 18 17 15 14
14 14 16 17 15 12 13 15 12 11 11 10 10 9 8 8 8 8 8 7 7 7 7 6 6 5 4 3 1 1 1 2 2 2 2 3 4 4 4 4 5 5 5 6 7 6 7 7 8 8 10 10 11 11 11 11 12 12 12 12 13 14 15 15 16 16 16 19 19 18 18 19 19 18 19 18 16 15 16 17 17 16 16 17 17
14 14 16 15 15 13 13 12 10 10 10 9 9 9 8 8 8 7 7 8 8 7 7 6 6 6 4 3 2 1 2 2 2 2 3 4 4 4 4 4 6 6 6 6 5 7 7 8 7 8 9 10 10 11 11 11 11 12 12 13 13 15 14 17 17 15 16 19 19 17 18 18 19 18 20 18 17 17 17 17 18 20 17 16 16
12 13 14 14 16 18 14 11 12 11 10 9 9 8 8 8 8 7 7 7 7 7 7 6 6 5 4 3 1 2 2 3 3 3 3 3 4 4 4 4 5 6 6 7 7 7 7 7 8 8 9 10 10 11 11 12 11 12 12 13 13 15 25 27 17 15 16 18 18 18 18 18 18 18 18 19 18 17 17 17 19 17 17 16 15
13 14 16 18 15 12 12 12 11 10 10 9 9 9 8 8 7 7 6 6 6 6 7 7 6 5 3 2 1 2 3 3 3 3 2 3 3 3 4 4 4 6 6 7 7 7 7 8 8 8 8 9 9 10 11 12 13 13 14 13 18 33 35 33 22 17 23 19 17 17 18 18 19 19 19 19 18 17 14 14 15 18 18 16 15
11 9 11 11 12 11 10 9 9 9 9 8 9 8 8 7 7 6 6 6 6 6 5 5 5 5 4 3 2 3 3 3 2 2 2 3 3 3 4 5 5 5 6 7 7 7 7 7 8 8 8 9 9 10 10 11 12 14 14 16 29 33 34 34 28 27 23 17 18 16 17 18 19 18 17 18 18 19 18 16 18 18 17 16 15
12 10 10 10 10 10 10 9 8 8 8 8 8 8 8 7 7 7 6 7 7 6 6 5 5 4 3 3 3 3 3 3 3 2 2 3 3 4 4 5 6 6 6 6 7 7 7 7 8 8 8 9 9 10 10 11 12 14 22 30 30 32 35 33 24 25 31 25 17 16 17 19 19 20 19 19 18 18 20 20 18 17 17 15 16
Wind_Direction
184 191 182 189 182 187 183 178 177 170 167 169 165 166 164 162 163 158 146 157 152 154 157 160 161 164 165 170 176 179 182 194 191 194 207 220 226 227 233 240 250 254 259 263 263 270 271 274 274 280 298 290 284 286 279 280 278 277 277 275 272 268 265 266 268 274 279 281 290 295 305 303 294 294 296 298 301 295 291 288 286 284 287 288 288
189 187 186 185 187 186 182 177 173 170 167 167 166 164 163 162 157 150 155 154 152 154 155 157 160 161 164 173 176 181 187 189 195 193 214 222 234 227 235 243 250 260 259 265 269 271 281 282 284 290 294 288 287 283 282 278 275 275 275 275 275 277 281 285 284 287 289 294 289 294 296 308 302 303 300 293 285 288 289 293 295 293 292 291 287
182 181 183 183 187 181 175 179 176 173 169 168 166 163 160 156 154 152 151 150 148 151 156 156 159 159 164 173 179 185 187 192 195 198 211 220 229 236 236 239 250 258 261 264 270 278 279 279 280 285 285 280 276 277 276 272 272 272 274 276 277 279 281 282 290 286 286 287 289 295 294 301 294 295 295 292 295 295 292 288 289 289 285 281 279
184 179 180 182 178 176 181 178 176 176 174 171 165 162 157 154 149 146 144 142 147 147 148 155 156 164 169 178 183 186 187 189 198 206 215 220 233 246 246 249 254 254 256 261 265 267 267 271 269 271 270 268 271 272 268 265 265 267 271 272 274 277 283 285 276 280 284 286 284 287 293 292 294 294 290 286 288 296 295 292 284 277 274 270 272
191 186 181 179 178 179 180 178 180 179 176 170 165 158 156 149 147 145 142 145 147 146 151 156 162 167 178 181 185 185 190 195 201 211 216 217 226 236 240 246 252 254 256 258 262 260 259 259 262 263 264 263 266 263 259 257 256 256 258 262 263 269 271 271 272 275 281 281 284 279 279 280 282 283 290 298 299 291 284 274 274 274 275 275 276
195 191 186 181 183 181 180 180 183 181 174 169 164 159 152 149 146 145 147 146 146 153 158 168 170 173 172 176 175 184 186 188 198 205 211 219 226 230 237 243 247 249 250 256 253 252 254 254 256 256 255 256 257 257 256 255 256 255 254 255 255 256 263 267 268 268 267 270 274 277 272 276 278 278 281 281 280 281 276 274 274 270 271 271 266
187 190 189 189 184 185 183 185 180 177 174 167 159 154 151 147 146 147 147 146 151 156 161 158 159 160 164 161 172 179 188 191 200 212 215 219 224 232 238 240 241 243 249 250 249 248 249 251 252 251 250 250 252 253 256 257 255 253 250 251 249 248 250 252 257 264 265 268 269 269 275 271 274 279 278 277 277 277 284 287 282 275 268 266 271
185 188 188 190 190 188 186 177 174 172 166 161 157 151 145 144 142 138 139 146 152 155 158 154 143 143 156 152 171 169 193 207 212 212 216 216 222 226 226 232 242 249 250 247 245 248 248 250 249 248 250 251 251 253 253 256 256 254 248 243 243 242 243 244 245 252 262 264 267 271 268 273 272 274 278 277 278 275 267 275 282 287 288 282 275
184 186 187 191 191 182 170 168 168 166 163 157 152 150 144 138 134 133 135 134 132 131 131 131 143 133 143 155 180 199 203 217 212 216 213 218 213 222 231 239 245 248 250 250 248 245 243 244 249 248 246 252 255 259 256 254 250 244 243 240 242 244 245 243 242 249 253 258 264 264 265 263 264 268 267 265 268 271 278 271 276 278 278 276 279
182 185 188 188 174 166 166 164 166 162 158 157 152 144 140 135 132 130 130 128 124 126 128 127 136 155 173 192 201 214 219 215 224 224 217 199 211 220 228 231 236 243 252 255 256 250 247 247 247 254 262 269 273 274 276 277 276 276 276 271 255 242 238 244 249 247 249 251 254 258 261 261 256 256 263 263 267 268 268 268 274 281 282 281 278
182 182 183 173 165 161 163 165 159 161 157 148 145 140 136 133 128 126 127 128 132 130 132 140 153 175 186 200 209 212 218 221 226 228 229 227 219 219 228 242 248 252 248 251 257 265 265 265 265 265 267 270 271 274 278 277 275 276 278 276 271 272 272 268 264 254 244 248 253 253 256 262 261 254 258 268 261 261 267 274 275 275 271 278 289
178 179 175 166 165 165 164 159 158 156 151 149 145 138 133 133 132 134 133 134 134 134 143 160 167 178 194 205 213 217 222 228 230 232 233 235 238 240 239 242 245 249 262 267 268 271 272 271 268 268 268 262 262 264 265 266 276 278 278 279 277 271 269 272 273 268 262 262 259 252 252 254 258 250 250 257 266 271 271 272 271 270 276 282 283
175 173 170 167 167 165 159 157 155 152 153 146 140 136 135 127 130 134 137 133 134 145 159 164 174 184 195 204 214 221 227 235 238 238 241 243 247 252 254 253 259 256 256 263 270 272 272 272 275 272 260 266 267 261 265 265 266 273 270 273 275 274 271 268 269 271 273 267 264 261 248 258 259 260 260 265 272 276 279 275 275 279 278 277 273
173 172 167 168 165 161 158 155 152 148 141 137 130 117 115 120 118 120 128 137 145 151 159 166 174 185 194 205 218 228 233 239 244 244 246 249 253 261 262 256 249 254 274 279 275 273 272 276 275 271 265 261 262 268 266 267 270 267 262 260 256 257 259 260 261 265 267 270 270 269 267 262 266 266 264 268 269 268 271 268 266 264 263 264 270
170 166 164 161 156 154 151 149 143 128 123 115 113 115 121 122 130 138 142 148 152 157 164 168 177 177 191 202 213 231 238 244 247 249 251 258 264 271 273 277 288 280 273 271 274 274 276 275 276 272 271 271 265 268 275 277 274 274 272 270 258 243 242 250 249 252 255 255 261 266 267 261 262 264 264 260 258 262 261 263 263 264 267 269 267
166 162 162 160 158 157 153 147 143 139 129 131 129 135 135 142 143 143 140 140 146 150 160 162 174 181 186 184 211 235 242 250 254 255 260 266 272 275 275 279 271 269 274 276 279 279 276 276 274 277 276 267 271 282 291 294 293 289 285 282 279 265 247 246 252 255 256 254 252 255 258 258 260 262 261 258 258 256 258 262 266 265 267 264 260
171 167 166 164 163 161 157 153 152 147 150 149 150 150 149 147 144 145 144 150 155 162 164 167 172 170 180 189 207 231 239 255 260 261 262 268 276 270 256 253 267 278 280 277 278 277 276 275 278 282 287 286 294 299 299 301 296 294 288 281 275 270 266 262 269 274 274 273 270 268 266 266 265 265 266 265 265 262 258 261 259 259 262 262 262
173 171 171 169 166 163 161 158 157 159 160 155 152 149 142 139 145 154 152 156 162 161 159 152 165 172 186 192 203 222 236 253 257 262 265 269 273 269 276 271 266 270 273 271 270 273 280 294 297 298 298 297 299 302 305 306 297 292 286 282 281 277 275 278 276 272 270 271 269 268 268 266 266 267 267 266 265 265 262 257 252 253 259 259 266
177 177 173 167 165 163 164 163 161 162 164 155 146 144 149 149 146 140 140 139 142 144 148 153 158 173 185 187 212 227 233 245 260 266 272 274 279 275 271 275 277 278 282 281 280 286 291 297 298 298 300 299 304 306 307 307 298 295 294 290 290 288 288 289 284 281 274 266 260 258 259 261 261 260 261 263 265 266 266 269 269 258 258 260 261
175 164 161 164 165 165 168 167 164 162 159 142 130 137 136 132 139 141 141 135 137 139 144 149 156 161 173 185 213 232 238 238 250 265 272 279 287 286 277 281 279 278 280 283 294 297 297 297 299 300 301 304 306 308 310 312 310 306 302 296 293 296 303 294 283 278 276 269 265 260 259 254 250 249 250 256 259 261 263 262 258 253 255 258 255
162 160 160 163 166 167 167 170 163 161 154 151 134 127 138 139 137 142 140 141 140 141 146 145 147 166 186 205 206 220 222 230 245 263 278 286 290 294 277 273 275 279 284 300 305 307 305 301 300 298 302 306 310 314 316 316 315 312 308 302 299 296 298 295 296 297 292 290 281 271 260 253 248 247 250 251 250 249 251 255 252 250 248 251 251
158 157 163 165 165 164 166 165 159 152 150 137 127 131 130 130 134 129 127 137 137 126 127 139 151 177 194 205 206 216 230 227 211 270 281 288 289 294 291 281 292 298 303 302 307 305 303 299 298 300 308 315 318 319 319 319 320 322 309 304 303 304 305 304 307 308 296 287 278 271 262 253 250 244 244 245 244 246 251 252 252 249 244 238 243
158 158 159 163 164 161 160 159 156 151 148 147 123 131 133 129 129 131 136 127 127 132 141 153 164 178 182 197 210 210 202 202 248 263 279 287 291 295 299 301 307 310 306 304 309 304 300 297 291 307 318 322 322 322 322 322 323 313 313 314 315 313 314 318 310 303 298 296 295 286 271 258 253 251 247 248 247 245 246 245 243 243 243 244 241
154 157 161 162 157 157 154 153 151 153 149 143 111 124 133 132 128 129 121 126 129 135 147 161 165 169 185 197 192 174 195 174 245 268 271 283 291 298 302 305 308 312 309 312 307 301 294 299 313 319 322 322 324 326 325 322 316 315 316 318 318 320 315 306 302 300 299 298 295 295 293 285 270 265 260 256 253 247 246 244 243 244 243 245 244
157 161 163 162 157 151 150 151 153 155 155 146 131 129 129 134 127 135 131 133 134 139 155 159 166 176 180 186 182 177 183 196 216 253 275 283 295 302 305 306 312 313 314 296 297 291 308 318 322 324 325 328 329 329 326 320 319 320 322 322 323 313 306 301 301 299 296 297 296 293 291 292 292 291 285 273 264 260 256 254 248 247 247 246 245
162 164 161 159 156 149 146 149 151 152 139 122 124 139 141 144 133 138 137 137 144 148 153 155 169 180 182 181 178 181 186 190 220 239 247 265 282 305 309 315 315 316 315 312 301 311 321 324 325 327 331 331 332 329 323 321 321 323 323 324 317 310 304 303 300 301 298 299 297 294 294 294 291 291 293 295 289 272 260 254 253 248 245 247 248
161 162 163 160 156 157 154 154 153 154 150 132 127 123 130 129 131 137 145 146 148 154 155 164 174 177 180 177 176 184 187 193 221 237 238 240 235 255 308 291 309 321 318 281 290 347 330 326 326 330 331 330 328 322 318 317 314 313 312 312 311 309 306 301 304 306 304 300 298 297 297 295 296 294 291 288 282 279 271 260 250 249 248 247 249
169 169 165 162 164 164 160 153 152 148 151 147 141 138 137 141 142 152 160 159 155 160 165 173 177 174 175 175 174 178 186 204 230 236 237 229 244 258 279 270 327 327 287 298 13 341 324 315 323 318 318 317 314 305 305 308 311 311 310 312 312 314 315 312 306 298 297 301 298 297 294 296 295 294 292 289 288 286 285 274 257 251 246 248 250
165 164 165 163 167 167 159 160 156 148 137 109 82 136 147 152 149 141 137 141 152 154 162 168 168 168 166 172 170 172 187 213 231 238 240 312 322 320 301 319 301 281 319 345 7 323 306 320 318 324 322 319 316 315 315 316 315 313 310 312 319 319 316 317 311 305 302 302 300 299 299 297 295 294 293 291 287 290 292 297 288 265 251 242 245
167 171 171 172 166 162 160 160 157 154 140 146 141 128 119 133 137 140 140 153 156 159 161 164 164 159 167 189 165 183 193 225 238 32 359 352 350 355 3 0 351 351 353 1 356 327 323 327 326 325 323 322 319 321 322 322 321 321 318 322 320 319 321 320 312 305 303 304 302 299 296 295 295 299 299 297 296 294 292 292 292 290 275 253 246
173 172 174 180 175 167 160 155 158 149 138 134 137 137 136 134 138 138 142 153 160 165 167 172 172 173 174 185 195 189 213 217 105 87 42 17 9 12 20 11 5 8 11 16 355 346 338 336 326 322 315 317 317 320 321 321 323 321 322 321 318 321 323 316 311 309 306 304 300 296 292 296 300 303 299 298 298 296 294 291 291 286 280 272 255
175 180 179 173 166 168 162 156 150 140 140 140 135 132 132 127 135 149 153 158 166 172 167 172 173 178 173 169 177 234 190 155 123 79 58 36 28 21 23 15 13 19 20 17 3 339 337 328 323 318 318 320 320 318 319 319 320 321 321 323 323 323 324 323 316 310 301 302 303 301 298 299 299 299 296 296 297 296 294 295 291 291 289 285 272
178 173 172 167 168 167 160 159 153 149 141 143 142 140 140 141 139 142 156 164 165 164 162 167 169 169 166 169 167 175 153 133 112 86 61 46 36 30 29 24 26 21 24 16 18 346 335 318 309 312 321 321 319 319 317 318 318 320 321 320 321 323 322 319 319 310 302 304 307 303 303 302 301 299 296 296 296 293 295 292 292 289 289 286 286
179 173 172 170 167 170 170 162 150 148 139 145 148 146 147 148 147 144 136 148 163 157 156 161 163 159 159 156 150 138 128 119 100 84 65 51 41 36 38 23 23 24 31 22 357 333 313 316 322 321 320 316 313 314 315 316 318 316 316 317 316 316 311 310 311 306 301 308 308 302 304 302 303 302 298 296 291 292 293 291 290 289 287 286 287
177 179 173 168 170 168 165 159 148 138 146 143 145 145 145 147 147 150 156 163 158 146 146 126 141 139 117 131 136 129 121 111 97 78 69 56 44 47 57 34 14 350 8 14 351 327 334 333 323 318 316 314 314 315 315 317 316 318 318 317 317 317 320 321 313 304 303 311 310 307 306 306 305 300 300 298 297 293 290 289 287 283 282 282 280
177 174 174 176 171 162 144 143 144 142 143 140 141 142 140 145 148 150 152 153 145 140 136 145 135 155 136 121 131 117 108 103 94 75 72 65 52 54 51 21 15 0 345 326 332 331 321 312 311 310 311 308 310 310 313 314 315 315 314 314 316 316 317 319 310 302 309 312 308 308 306 303 302 302 295 290 288 289 289 287 286 283 279 277 276
177 175 175 175 172 150 148 143 145 139 133 131 130 129 128 130 127 135 146 149 144 141 141 139 135 110 81 4 53 72 86 88 83 71 62 65 67 67 92 88 16 313 316 321 322 318 315 310 308 305 306 307 308 310 312 312 313 314 315 315 311 314 314 315 313 309 312 314 311 307 305 304 304 303 302 299 294 289 286 289 287 282 278 275 277
176 173 169 163 157 151 132 128 138 131 125 118 107 127 135 138 141 144 146 146 146 143 147 153 146 141 133 186 65 84 78 69 66 51 38 41 45 43 41 30 353 298 293 297 301 303 309 311 313 310 309 306 308 312 313 314 316 317 316 314 314 309 317 315 309 306 311 313 311 311 308 306 307 306 304 299 294 290 287 286 286 283 279 277 274
163 158 154 153 150 145 145 137 131 122 116 126 125 134 135 137 139 142 144 143 143 142 141 137 135 137 144 160 269 88 82 58 49 29 7 12 13 16 350 331 304 308 294 293 303 315 314 315 315 313 309 311 310 311 313 315 316 317 316 315 316 316 319 318 311 311 317 319 316 313 311 308 306 304 303 299 294 292 291 287 286 284 280 276 269
157 151 150 149 151 148 142 137 132 131 134 133 129 125 133 140 145 146 144 143 145 145 143 141 139 148 169 170 174 123 106 117 160 188 267 311 308 316 313 323 324 312 313 317 316 317 318 313 313 312 311 310 311 311 314 315 316 315 316 316 316 316 314 307 301 313 321 318 317 316 314 312 311 307 303 302 297 294 296 294 292 286 282 276 273
152 149 151 152 142 139 132 131 131 132 133 134 136 136 138 138 137 138 140 140 140 139 139 138 140 167 192 207 154 133 130 146 160 194 229 229 262 283 293 297 303 312 313 314 317 318 316 312 311 310 310 309 311 313 314 316 315 317 317 317 315 315 305 299 303 311 320 322 321 320 319 316 314 315 312 309 305 303 295 293 291 287 278 272 271
148 149 148 145 145 138 136 127 128 130 131 134 137 137 137 137 138 139 141 142 141 140 134 131 135 168 258 128 111 114 113 134 150 198 257 247 263 264 278 282 275 267 282 292 305 313 313 312 306 308 307 310 312 313 315 314 317 317 316 316 318 317 310 306 310 319 325 325 325 323 321 318 316 314 310 311 307 305 301 298 294 288 279 272 268
147 145 145 146 149 147 135 131 129 130 127 128 127 123 126 132 136 137 136 135 137 137 132 130 129 122 43 91 99 97 88 134 202 228 225 264 261 278 288 289 287 282 277 277 278 287 294 297 300 298 302 304 307 307 311 311 312 315 315 318 319 319 315 311 313 324 327 328 327 325 322 320 320 318 317 314 310 311 306 302 303 294 285 275 272
144 141 143 145 137 123 121 125 127 125 128 119 116 125 130 128 129 131 131 131 133 130 128 128 133 121 75 50 59 67 84 318 273 260 263 277 291 297 297 297 298 299 304 305 311 307 305 299 298 299 299 300 303 304 304 307 312 314 318 318 318 311 307 311 320 328 331 331 329 327 325 323 321 320 318 317 319 316 312 309 304 296 289 285 275
141 143 138 130 126 119 119 116 115 117 117 120 122 120 122 125 128 127 128 127 125 123 120 127 123 121 103 93 82 98 253 265 279 281 287 284 289 294 298 304 307 311 316 317 318 317 310 305 301 305 308 309 309 310 310 312 314 316 315 318 318 316 313 315 321 325 329 331 331 328 325 324 324 324 323 322 321 316 309 305 301 301 297 288 281
142 139 136 131 125 120 117 104 120 123 126 127 127 127 125 124 124 127 126 124 126 127 127 123 121 113 115 120 120 127 252 251 269 264 278 286 287 289 291 296 304 311 310 311 313 313 304 300 303 304 307 308 311 311 313 313 315 316 315 314 316 311 308 313 321 326 332 335 333 329 325 325 324 324 323 323 320 318 313 307 306 303 298 293 288
142 140 137 130 127 124 122 119 122 124 123 125 124 127 128 127 125 121 122 123 128 128 129 132 130 130 132 141 157 212 232 246 248 266 263 268 276 285 293 305 314 316 318 314 311 305 304 303 303 302 304 305 309 311 314 315 315 315 317 317 314 315 316 325 327 329 334 335 333 329 327 327 326 328 326 327 326 323 317 312 315 309 304 297 296
133 131 124 118 117 105 118 123 120 119 119 122 122 124 123 123 121 122 124 125 121 124 123 125 128 135 134 154 166 203 241 239 253 250 264 274 283 293 307 318 319 320 316 316 311 306 302 301 301 304 304 310 315 317 315 317 315 317 316 318 314 317 331 332 332 335 340 337 335 332 330 329 329 329 329 329 329 328 322 321 320 318 311 307 301
125 115 94 97 110 121 125 125 126 129 128 126 124 122 126 123 122 123 128 122 121 123 133 139 140 138 138 153 167 221 235 246 249 262 268 280 294 304 312 316 320 316 317 310 306 305 305 304 303 302 303 308 311 314 315 316 317 317 318 314 321 333 338 337 337 340 344 340 337 334 332 331 331 330 331 331 331 330 320 309 310 321 319 312 308
101 104 116 120 115 111 107 111 114 118 120 125 125 125 124 123 126 129 124 124 122 130 134 130 130 141 143 156 182 222 234 239 249 260 276 293 303 313 321 325 320 317 311 303 303 303 304 302 305 304 310 311 314 315 315 314 314 315 316 319 330 339 341 340 339 347 350 344 339 335 336 334 334 333 335 334 333 332 332 330 329 326 321 322 321
117 110 105 108 107 110 113 111 106 117 124 127 127 128 128 128 128 129 130 134 136 135 127 128 129 133 142 179 190 220 231 241 246 258 281 308 321 329 328 326 322 316 307 300 300 300 299 302 307 312 313 314 317 314 315 313 313 313 319 325 335 341 343 344 344 349 351 347 340 340 340 340 338 339 339 339 337 338 337 334 329 329 331 329 328